Houston Hull, TX

7:16 AM CST on December 08, 2019 (GMT -0600)
Sugar Land Municipal-Hull

Weather History for KSGR - October, 2019

Change the Weather History Date:

Wednesday, October 30, 2019

  Actual Average Record
Temperature  
Mean Temperature 58 °F -  
Max Temperature 71 °F 78 °F 92 °F (1950)
Min Temperature 45 °F 56 °F 30 °F (1993)
Degree Days  
Heating Degree Days 7    
Growing Degree Days 8 (Base 50)    
Moisture  
Dew Point 56 °F    
Average Humidity 94    
Maximum Humidity 100    
Minimum Humidity 86    
Precipitation  
Precipitation 0.01 in - - ()
Sea Level Pressure  
Sea Level Pressure 29.99 in    
Wind  
Wind Speed 10 mph (NNW)    
Max Wind Speed 25 mph    
Max Gust Speed 38 mph    
Visibility 7 miles    
Events Rain , Thunderstorm    
Averages and records for this station are not official NWS values.
T = Trace of Precipitation, MM = Missing Value Source: NWS Daily Summary

Daily Weather History Graph

Daily Weather History Graph

Search for Another Location

Airport or City:

Astronomy

Oct. 30, 2019 Rise Set
Actual Time 7:34 AM CDT 6:37 PM CDT
Civil Twilight 7:09 AM CDT 7:02 PM CDT
Nautical Twilight 6:41 AM CDT 7:30 PM CDT
Astronomical Twilight 6:13 AM CDT 7:58 PM CDT
Moon 10:09 AM CDT (10/30) 8:56 PM CDT (10/30)
Length of Visible Light 11h 52m
Length of Day
11h 03m
Waxing Crescent, 9% of the Moon is Illuminated
Oct 30
Waxing Crescent
Nov 4
First Quarter
Nov 12
Full
Nov 19
Last Quarter
Nov 26
New

Hourly Weather History & Observations

Time (CDT) Temp. Windchill Dew Point Humidity Pressure Visibility Wind Dir Wind Speed Gust Speed Precip Events Conditions
12:14 AM 71.1 °F - 70.0 °F 96% 29.89 in 10.0 mi ESE 10.4 mph - N/A   Overcast
12:53 AM 71.1 °F - 70.0 °F 96% 29.89 in 10.0 mi ESE 6.9 mph - N/A   Overcast
1:53 AM 71.1 °F - 70.0 °F 96% 29.89 in 7.0 mi ESE 3.5 mph - N/A   Overcast
2:53 AM 71.1 °F - 71.1 °F 100% 29.89 in 2.5 mi Calm Calm - N/A   Overcast
3:17 AM 71.1 °F - 70.0 °F 96% 29.88 in 1.5 mi North 3.5 mph - N/A   Overcast
3:51 AM 71.6 °F - 71.6 °F 100% 29.88 in 1.2 mi Calm Calm - 0.00 in Rain Light Rain
3:53 AM 71.1 °F - 71.1 °F 100% 29.88 in 1.5 mi NE 3.5 mph - 0.00 in Rain Light Rain
4:35 AM 71.1 °F - 70.0 °F 96% 29.88 in 2.5 mi North 5.8 mph - 0.00 in Rain Light Rain
4:53 AM 71.1 °F - 70.0 °F 96% 29.88 in 2.5 mi North 3.5 mph - 0.00 in Rain Light Rain
5:16 AM 71.1 °F - 70.0 °F 96% 29.87 in 4.0 mi NNW 4.6 mph - 0.00 in   Overcast
5:53 AM 64.0 °F - 64.0 °F 100% 29.89 in 10.0 mi NNW 5.8 mph - 0.00 in   Overcast
6:00 AM 64.0 °F - 64.0 °F 100% 29.88 in 9.0 mi NNW 4.6 mph - N/A   Overcast
6:53 AM 62.1 °F - 62.1 °F 100% 29.89 in 5.0 mi NNW 8.1 mph - 0.00 in   Overcast
7:25 AM 60.1 °F - 60.1 °F 100% 29.90 in 4.0 mi NNW 10.4 mph - 0.00 in Rain Light Rain
7:43 AM 59.0 °F - 59.0 °F 100% 29.90 in 5.0 mi NW 6.9 mph - 0.00 in Rain Heavy Rain
7:53 AM 59.0 °F - 59.0 °F 100% 29.91 in 10.0 mi NNW 5.8 mph - 0.00 in   Overcast
8:53 AM 57.0 °F - 57.0 °F 100% 29.94 in 6.0 mi NNW 10.4 mph - 0.00 in Rain Light Rain
9:53 AM 57.0 °F - 55.9 °F 96% 29.96 in 10.0 mi NNW 6.9 mph - 0.00 in   Overcast
10:53 AM 57.0 °F - 55.0 °F 93% 29.96 in 10.0 mi NW 9.2 mph - N/A   Overcast
11:53 AM 57.0 °F - 55.0 °F 93% 29.97 in 10.0 mi NNW 10.4 mph - N/A   Overcast
12:53 PM 55.9 °F - 54.0 °F 93% 29.96 in 10.0 mi NW 13.8 mph - N/A   Overcast
1:53 PM 55.0 °F - 53.1 °F 93% 29.95 in 10.0 mi NNW 16.1 mph 21.9 mph N/A   Overcast
2:53 PM 55.9 °F - 53.1 °F 90% 29.94 in 10.0 mi NNW 11.5 mph - N/A   Overcast
3:53 PM 54.0 °F - 53.1 °F 97% 29.95 in 10.0 mi NNW 13.8 mph - 0.01 in Rain Light Rain
4:53 PM 53.1 °F - 52.0 °F 96% 29.97 in 10.0 mi NNW 12.7 mph - 0.00 in   Overcast
5:53 PM 53.1 °F - 51.1 °F 93% 29.98 in 10.0 mi North 13.8 mph - N/A   Overcast
6:03 PM 53.1 °F - 50.0 °F 89% 29.98 in 10.0 mi NNW 12.7 mph - N/A   Overcast
6:37 PM 52.0 °F - 50.0 °F 93% 29.99 in 10.0 mi NNW 13.8 mph 25.3 mph N/A   Overcast
6:53 PM 52.0 °F - 48.9 °F 89% 30.01 in 10.0 mi NNW 17.3 mph 26.5 mph N/A   Overcast
7:53 PM 50.0 °F - 46.9 °F 89% 30.05 in 10.0 mi NNW 20.7 mph 35.7 mph 0.00 in Rain Light Rain
8:28 PM 50.0 °F - 46.0 °F 86% 30.07 in 10.0 mi North 17.3 mph 29.9 mph 0.00 in   Overcast
8:53 PM 50.0 °F - 46.0 °F 86% 30.08 in 10.0 mi North 18.4 mph 27.6 mph 0.00 in   Overcast
9:30 PM 48.9 °F - 45.0 °F 86% 30.11 in 10.0 mi NNW 19.6 mph 26.5 mph N/A   Overcast
9:53 PM 48.0 °F - 45.0 °F 89% 30.12 in 10.0 mi North 17.3 mph 29.9 mph 0.00 in Rain Light Rain
10:12 PM 48.0 °F - 44.1 °F 86% 30.11 in 10.0 mi NNW 20.7 mph 29.9 mph 0.00 in   Overcast
10:34 PM 46.9 °F - 44.1 °F 90% 30.17 in 10.0 mi NNW 17.3 mph 31.1 mph 0.00 in Rain , Thunderstorm Light Rain
10:49 PM 46.4 °F 39.0 °F 44.6 °F 93% 30.15 in 5.0 mi North 19.6 mph 31.1 mph N/A Rain Heavy Rain
10:53 PM 46.0 °F 37.4 °F 44.1 °F 93% 30.15 in 5.0 mi North 25.3 mph 35.7 mph N/A Rain Heavy Rain
11:10 PM 46.0 °F 38.5 °F 44.1 °F 93% 30.17 in 2.5 mi NNW 19.6 mph 31.1 mph N/A Rain Heavy Rain
11:21 PM 45.0 °F 36.2 °F 44.1 °F 97% 30.13 in 2.5 mi North 24.2 mph 38.0 mph N/A Rain Heavy Rain
11:26 PM 45.0 °F 36.9 °F 44.1 °F 97% 30.15 in 3.0 mi North 20.7 mph 38.0 mph N/A Rain Heavy Rain
11:53 PM 45.0 °F 37.6 °F 43.0 °F 93% 30.17 in 10.0 mi North 17.3 mph 25.3 mph N/A Rain Light Rain